Weather History for Perryton, TX

Change the Weather History Date:

Wednesday, December 5, 2012

  Actual Average Record
Temperature  
Mean Temperature 47 °F -  
Max Temperature 62 °F 54 °F 78 °F (1965)
Min Temperature 32 °F 23 °F 12 °F (1972)
Degree Days  
Heating Degree Days 18    
Moisture  
Dew Point 18 °F    
Average Humidity 33    
Maximum Humidity 48    
Minimum Humidity 20    
Precipitation  
Precipitation 0.00 in - - ()
Sea Level Pressure  
Sea Level Pressure 30.13 in    
Wind  
Wind Speed 11 mph (South)    
Max Wind Speed 21 mph    
Max Gust Speed 28 mph    
Visibility 10 miles    
Events      
Averages and records for this station are not official NWS values.
T = Trace of Precipitation, MM = Missing Value Source: NWS Daily Summary

Daily Weather History Graph

Daily Weather History Graph

Search for Another Location

Airport:

Trip Planner

Search our weather history database for the weather conditions in past years. The results will help you decide how hot, cold, wet, or windy it might be!

Date:

Astronomy

Dec. 05, 2012 Rise Set
Actual Time 7:40 AM CST 5:27 PM CST
Civil Twilight 7:11 AM CST 5:56 PM CST
Nautical Twilight 6:39 AM CST 6:28 PM CST
Astronomical Twilight 6:08 AM CST 6:59 PM CST
Moon No Moon Rise 12:12 PM CST (12/5)
Length of Visible Light 10h 44m
Length of Day
9h 47m
Waning Gibbous, 59% of the Moon is Illuminated
Dec 5
Waning Gibbous
Dec 6
Last Quarter
Dec 13
New
Dec 19
First Quarter
Dec 28
Full

Hourly Weather History & Observations

Time (CST) Temp. Windchill Dew Point Humidity Pressure Visibility Wind Dir Wind Speed Gust Speed Precip Events Conditions
12:15 AM 32.0 °F 25.6 °F 12.2 °F 44% 30.28 in 10.0 mi South 6.9 mph - N/A   Clear
12:35 AM 33.8 °F 28.6 °F 12.2 °F 41% 30.28 in 10.0 mi SSE 5.8 mph - N/A   Clear
12:55 AM 33.8 °F 27.0 °F 12.2 °F 41% 30.28 in 10.0 mi South 8.1 mph - N/A   Clear
1:15 AM 32.0 °F 24.8 °F 12.2 °F 44% 30.28 in 10.0 mi South 8.1 mph - N/A   Clear
1:55 AM 33.8 °F 26.4 °F 12.2 °F 41% 30.27 in 10.0 mi South 9.2 mph - N/A   Clear
2:15 AM 33.8 °F 26.4 °F 14.0 °F 44% 30.27 in 10.0 mi South 9.2 mph - N/A   Clear
2:35 AM 33.8 °F 27.7 °F 14.0 °F 44% 30.27 in 10.0 mi SSE 6.9 mph - N/A   Clear
2:55 AM 32.0 °F 24.8 °F 12.2 °F 44% 30.27 in 10.0 mi SSE 8.1 mph - N/A   Clear
3:15 AM 32.0 °F 24.2 °F 12.2 °F 44% 30.27 in 10.0 mi SSE 9.2 mph - N/A   Clear
3:35 AM 32.0 °F 24.8 °F 12.2 °F 44% 30.27 in 10.0 mi South 8.1 mph - N/A   Clear
3:55 AM 32.0 °F 24.8 °F 14.0 °F 48% 30.26 in 10.0 mi South 8.1 mph - N/A   Clear
4:15 AM 32.0 °F 24.2 °F 14.0 °F 48% 30.25 in 10.0 mi SSE 9.2 mph - N/A   Clear
4:35 AM 32.0 °F 25.6 °F 14.0 °F 48% 30.25 in 10.0 mi South 6.9 mph - N/A   Clear
4:55 AM 32.0 °F 25.6 °F 14.0 °F 48% 30.24 in 10.0 mi South 6.9 mph - N/A   Clear
5:15 AM 32.0 °F 25.6 °F 14.0 °F 48% 30.24 in 10.0 mi South 6.9 mph - N/A   Clear
5:35 AM 35.6 °F 28.0 °F 14.0 °F 41% 30.24 in 10.0 mi South 10.4 mph - N/A   Clear
5:55 AM 35.6 °F 28.6 °F 14.0 °F 41% 30.24 in 10.0 mi South 9.2 mph - N/A   Clear
6:15 AM 35.6 °F 28.6 °F 14.0 °F 41% 30.24 in 10.0 mi South 9.2 mph - N/A   Clear
6:35 AM 33.8 °F 27.0 °F 14.0 °F 44% 30.24 in 10.0 mi South 8.1 mph - N/A   Clear
6:55 AM 33.8 °F 27.0 °F 14.0 °F 44% 30.24 in 10.0 mi South 8.1 mph - N/A   Clear
8:35 AM 41.0 °F 34.3 °F 14.0 °F 33% 30.23 in 10.0 mi South 11.5 mph - N/A   Clear
8:55 AM 42.8 °F 36.2 °F 15.8 °F 34% 30.22 in 10.0 mi South 12.7 mph - N/A   Clear
9:15 AM 44.6 °F 38.1 °F 17.6 °F 34% 30.22 in 10.0 mi South 13.8 mph - N/A   Clear
9:35 AM 46.4 °F 39.8 °F 17.6 °F 32% 30.22 in 10.0 mi South 16.1 mph 20.7 mph N/A   Clear
9:55 AM 50.0 °F - 19.4 °F 30% 30.21 in 10.0 mi South 18.4 mph - N/A   Clear
10:15 AM 51.8 °F - 19.4 °F 28% 30.21 in 10.0 mi South 18.4 mph 21.9 mph N/A   Clear
10:35 AM 53.6 °F - 19.4 °F 26% 30.21 in 10.0 mi South 18.4 mph 21.9 mph N/A   Clear
10:55 AM 53.6 °F - 19.4 °F 26% 30.20 in 10.0 mi South 18.4 mph - N/A   Clear
11:15 AM 53.6 °F - 19.4 °F 26% 30.19 in 10.0 mi South 19.6 mph - N/A   Clear
11:35 AM 55.4 °F - 19.4 °F 25% 30.17 in 10.0 mi South 17.3 mph 23.0 mph N/A   Clear
11:55 AM 57.2 °F - 19.4 °F 23% 30.15 in 10.0 mi South 16.1 mph 25.3 mph N/A   Clear
12:15 PM 59.0 °F - 19.4 °F 22% 30.14 in 10.0 mi South 19.6 mph 25.3 mph N/A   Clear
12:35 PM 60.8 °F - 19.4 °F 20% 30.12 in 10.0 mi South 20.7 mph 26.5 mph N/A   Clear
12:55 PM 60.8 °F - 21.2 °F 22% 30.10 in 10.0 mi South 19.6 mph 26.5 mph N/A   Clear
1:15 PM 60.8 °F - 21.2 °F 22% 30.08 in 10.0 mi South 20.7 mph 27.6 mph N/A   Clear
1:35 PM 60.8 °F - 21.2 °F 22% 30.06 in 10.0 mi SSW 18.4 mph 26.5 mph N/A   Clear
1:55 PM 62.6 °F - 21.2 °F 20% 30.05 in 10.0 mi South 19.6 mph 24.2 mph N/A   Clear
2:15 PM 60.8 °F - 21.2 °F 22% 30.04 in 10.0 mi South 18.4 mph 24.2 mph N/A   Clear
2:35 PM 60.8 °F - 21.2 °F 22% 30.03 in 10.0 mi South 15.0 mph 24.2 mph N/A   Clear
2:55 PM 62.6 °F - 23.0 °F 22% 30.02 in 10.0 mi South 19.6 mph - N/A   Clear
3:15 PM 62.6 °F - 23.0 °F 22% 30.01 in 10.0 mi South 18.4 mph 26.5 mph N/A   Clear
3:35 PM 60.8 °F - 23.0 °F 23% 30.00 in 10.0 mi South 17.3 mph 23.0 mph N/A   Clear
3:55 PM 62.6 °F - 23.0 °F 22% 29.99 in 10.0 mi SSW 19.6 mph 25.3 mph N/A   Clear
4:15 PM 62.6 °F - 23.0 °F 22% 29.98 in 10.0 mi SSW 17.3 mph 26.5 mph N/A   Clear
4:35 PM 60.8 °F - 23.0 °F 23% 29.98 in 10.0 mi South 18.4 mph 23.0 mph N/A   Clear
4:55 PM 59.0 °F - 23.0 °F 25% 29.98 in 10.0 mi South 16.1 mph 19.6 mph N/A   Clear
5:15 PM 55.4 °F - 23.0 °F 29% 29.97 in 10.0 mi South 12.7 mph - N/A   Clear
5:35 PM 53.6 °F - 21.2 °F 28% 29.96 in 10.0 mi SSE 11.5 mph - N/A   Clear
5:55 PM 51.8 °F - 21.2 °F 30% 29.96 in 10.0 mi SSE 11.5 mph - N/A   Clear
6:15 PM 50.0 °F - 21.2 °F 32% 29.95 in 10.0 mi SSE 11.5 mph - N/A   Clear
6:35 PM 50.0 °F - 21.2 °F 32% 29.94 in 10.0 mi SSE 11.5 mph - N/A   Clear
6:55 PM 50.0 °F - 21.2 °F 32% 29.95 in 10.0 mi SSE 13.8 mph - N/A   Clear
7:15 PM 50.0 °F - 19.4 °F 30% 29.93 in 10.0 mi SSE 18.4 mph - N/A   Clear
7:35 PM 50.0 °F - 19.4 °F 30% 29.93 in 10.0 mi SSE 15.0 mph - N/A   Clear
7:55 PM 50.0 °F - 19.4 °F 30% 29.94 in 10.0 mi SSE 13.8 mph - N/A   Clear
8:15 PM 48.2 °F - 17.6 °F 30% 29.94 in 10.0 mi SSE 15.0 mph - N/A   Clear